EW0370 Weather Reports


Display with metric or nautical units.
time (UTC)temp
F
wind
direction
speed
MPH
gust
MPH
rain 1hr
in
rain 24hr
in
rain mn
in
humidity
%
barometer
mb
20260509224243 85 161 5.0 8.0 0.00 0.00 0.00 37 1008.2
20260509223743 85 177 2.0 5.0 0.00 0.00 0.00 37 1008.2
20260509223243 84 146 3.0 8.0 0.00 0.00 0.00 36 1008.4
20260509222743 84 166 6.0 7.0 0.00 0.00 0.00 34 1008.4
20260509222243 84 163 4.0 7.0 0.00 0.00 0.00 36 1008.5
20260509221743 84 113 1.0 2.0 0.00 0.00 0.00 36 1008.5
20260509221244 84 155 5.0 6.0 0.00 0.00 0.00 37 1008.5
20260509220744 84 151 2.0 5.0 0.00 0.00 0.00 35 1008.6
20260509220243 84 151 2.0 3.0 0.00 0.00 0.00 36 1008.6
20260509215743 84 155 4.0 6.0 0.00 0.00 0.00 36 1008.6
20260509215243 84 157 3.0 5.0 0.00 0.00 0.00 36 1008.6
20260509214745 84 155 5.0 6.0 0.00 0.00 0.00 35 1008.6
20260509214244 85 162 3.0 5.0 0.00 0.00 0.00 35 1008.6
20260509213743 85 163 3.0 5.0 0.00 0.00 0.00 36 1008.6
20260509213243 84 176 2.0 2.0 0.00 0.00 0.00 37 1008.6
20260509212745 84 202 2.0 4.0 0.00 0.00 0.00 36 1008.8
20260509212243 84 160 4.0 7.0 0.00 0.00 0.00 36 1008.9
20260509211744 84 164 2.0 4.0 0.00 0.00 0.00 35 1009.0
20260509211243 84 158 4.0 7.0 0.00 0.00 0.00 37 1009.1
20260509210744 84 155 4.0 6.0 0.00 0.00 0.00 36 1009.1
20260509210244 84 163 4.0 7.0 0.00 0.00 0.00 36 1009.1
20260509205743 84 2 1.0 3.0 0.00 0.00 0.00 36 1009.2
20260509205245 84 10 1.0 2.0 0.00 0.00 0.00 37 1009.2
20260509204743 84 172 4.0 7.0 0.00 0.00 0.00 35 1009.3
20260509204244 84 153 4.0 6.0 0.00 0.00 0.00 36 1009.3
20260509203743 84 169 4.0 8.0 0.00 0.00 0.00 36 1009.3
20260509203243 84 309 1.0 2.0 0.00 0.00 0.00 37 1009.3
20260509202744 84 356 2.0 2.0 0.00 0.00 0.00 36 1009.4
20260509202243 84 163 1.0 2.0 0.00 0.00 0.00 33 1009.5
20260509201743 84 143 0.0 1.0 0.00 0.00 0.00 34 1009.5
20260509201243 83 14 1.0 2.0 0.00 0.00 0.00 33 1009.5
20260509200743 83 158 2.0 4.0 0.00 0.00 0.00 33 1009.6
20260509200243 83 163 0.0 2.0 0.00 0.00 0.00 33 1009.7
20260509195744 83 169 3.0 4.0 0.00 0.00 0.00 33 1009.8
20260509195244 83 161 3.0 7.0 0.00 0.00 0.00 34 1009.9
20260509194743 84 12 2.0 3.0 0.00 0.00 0.00 33 1009.9
20260509194243 84 214 2.0 3.0 0.00 0.00 0.00 35 1009.9
20260509193743 84 13 1.0 2.0 0.00 0.00 0.00 34 1009.9
20260509193243 84 157 3.0 5.0 0.00 0.00 0.00 34 1010.0
20260509192743 83 323 2.0 3.0 0.00 0.00 0.00 32 1010.1
20260509192243 83 307 2.0 3.0 0.00 0.00 0.00 33 1010.1
20260509191743 83 16 2.0 2.0 0.00 0.00 0.00 35 1010.1
20260509191245 83 354 2.0 4.0 0.00 0.00 0.00 35 1010.2
20260509190744 83 157 2.0 6.0 0.00 0.00 0.00 33 1010.3
20260509190243 83 219 2.0 4.0 0.00 0.00 0.00 33 1010.3
20260509185743 83 144 3.0 8.0 0.00 0.00 0.00 33 1010.4
20260509185244 83 170 3.0 6.0 0.00 0.00 0.00 33 1010.4
20260509184744 83 147 2.0 4.0 0.00 0.00 0.00 34 1010.5
20260509184244 83 350 0.0 1.0 0.00 0.00 0.00 30 1010.5
20260509183743 83 152 1.0 2.0 0.00 0.00 0.00 32 1010.6
20260509183243 83 168 3.0 4.0 0.00 0.00 0.00 32 1010.6
20260509182744 83 174 3.0 4.0 0.00 0.00 0.00 36 1010.6
20260509182245 82 147 1.0 1.0 0.00 0.00 0.00 30 1010.7
20260509181743 82 155 4.0 5.0 0.00 0.00 0.00 31 1010.8
20260509181245 82 169 2.0 4.0 0.00 0.00 0.00 34 1010.8
20260509180743 82 165 2.0 4.0 0.00 0.00 0.00 37 1011.0
20260509180243 82 150 3.0 5.0 0.00 0.00 0.00 36 1011.0
20260509175748 82 153 4.0 8.0 0.00 0.00 0.00 37 1011.1
20260509175243 82 164 4.0 4.0 0.00 0.00 0.00 39 1011.2
20260509174745 81 20 1.0 1.0 0.00 0.00 0.00 42 1011.3
20260509174247 82 167 2.0 3.0 0.00 0.00 0.00 41 1011.4
20260509173744 81 175 2.0 3.0 0.00 0.00 0.00 43 1011.4
20260509173243 80 177 1.0 2.0 0.00 0.00 0.00 42 1011.4
20260509172743 81 163 6.0 7.0 0.00 0.00 0.00 41 1011.7
20260509172243 82 163 2.0 2.0 0.00 0.00 0.00 42 1011.7
20260509171743 81 350 2.0 2.0 0.00 0.00 0.00 40 1011.7
20260509171244 81 172 0.0 1.0 0.00 0.00 0.00 41 1011.8
20260509170743 80 163 1.0 2.0 0.00 0.00 0.00 44 1011.8
20260509170245 80 144 2.0 3.0 0.00 0.00 0.00 47 1011.9
20260509165744 80 163 1.0 2.0 0.00 0.00 0.00 50 1011.9
20260509165243 79 289 0.0 1.0 0.00 0.00 0.00 52 1012.0
20260509164745 79 148 2.0 3.0 0.00 0.00 0.00 51 1011.9
20260509163745 77 143 1.0 3.0 0.00 0.00 0.00 55 1012.0
20260509163243 77 320 2.0 3.0 0.00 0.00 0.00 54 1012.0
20260509162744 76 185 1.0 2.0 0.00 0.00 0.00 60 1012.1
20260509162244 76 149 2.0 2.0 0.00 0.00 0.00 60 1012.2
20260509161746 75 158 4.0 5.0 0.00 0.00 0.00 56 1012.2
20260509161243 74 150 1.0 3.0 0.00 0.00 0.00 63 1012.2
20260509160743 74 167 3.0 5.0 0.00 0.00 0.00 65 1012.3
20260509160245 74 123 1.0 2.0 0.00 0.00 0.00 66 1012.3
20260509155744 73 34 1.0 2.0 0.00 0.00 0.00 68 1012.1
20260509155250 73 160 2.0 3.0 0.00 0.00 0.00 70 1012.1
20260509154744 73 161 2.0 3.0 0.00 0.00 0.00 68 1012.1
20260509154244 72 163 3.0 4.0 0.00 0.00 0.00 67 1012.0
20260509153743 72 148 0.0 1.0 0.00 0.00 0.00 69 1012.3
20260509153244 72 159 2.0 3.0 0.00 0.00 0.00 68 1012.0
20260509152744 72 176 3.0 4.0 0.00 0.00 0.00 69 1012.2
20260509152243 72 161 3.0 4.0 0.00 0.00 0.00 66 1011.9
20260509151744 71 151 2.0 2.0 0.00 0.00 0.00 70 1012.0
20260509151244 71 270 1.0 2.0 0.00 0.00 0.00 70 1012.1
20260509150744 71 168 3.0 4.0 0.00 0.00 0.00 71 1012.0
20260509150244 71 30 1.0 1.0 0.00 0.00 0.00 72 1012.0
20260509145744 71 171 2.0 3.0 0.00 0.00 0.00 73 1012.0
20260509145243 70 131 2.0 2.0 0.00 0.00 0.00 75 1012.0
20260509144744 69 29 1.0 1.0 0.00 0.00 0.00 79 1011.9
20260509144243 69 151 1.0 2.0 0.00 0.00 0.00 79 1011.8
20260509143743 69 22 1.0 2.0 0.00 0.00 0.00 80 1011.9
20260509143244 68 149 2.0 4.0 0.00 0.00 0.00 80 1012.1
20260509142743 68 130 2.0 4.0 0.00 0.00 0.00 80 1012.0
20260509142243 67 27 1.0 1.0 0.00 0.00 0.00 82 1012.1
20260509141743 67 43 1.0 2.0 0.00 0.00 0.00 83 1012.2
20260509141243 66 43 1.0 1.0 0.00 0.00 0.00 83 1012.2
20260509140743 66 20 1.0 1.0 0.00 0.00 0.00 84 1012.2
20260509140245 65 0 0.0 0.0 0.00 0.00 0.00 87 1012.2
20260509135744 64 306 0.0 0.0 0.00 0.00 0.00 89 1012.1
20260509135243 63 15 0.0 0.0 0.00 0.00 0.00 90 1012.1
20260509134745 63 72 0.0 0.0 0.00 0.00 0.00 90 1012.0
20260509134245 62 31 1.0 2.0 0.00 0.00 0.00 91 1012.0
20260509133743 62 35 1.0 1.0 0.00 0.00 0.00 91 1011.9
20260509133247 62 5 0.0 0.0 0.00 0.00 0.00 90 1011.8
20260509132745 61 0 0.0 0.0 0.00 0.00 0.00 91 1011.8
20260509132243 61 147 1.0 2.0 0.00 0.00 0.00 91 1011.8
20260509131744 60 0 0.0 0.0 0.00 0.00 0.00 90 1011.8
20260509131244 60 0 0.0 0.0 0.00 0.00 0.00 90 1011.6
20260509130747 60 0 0.0 0.0 0.00 0.00 0.00 91 1011.6
20260509130244 60 0 0.0 0.0 0.00 0.00 0.00 92 1011.6
20260509125743 59 130 0.0 1.0 0.00 0.00 0.00 92 1011.4
20260509125243 59 0 0.0 0.0 0.00 0.00 0.00 92 1011.4
20260509124743 59 0 0.0 0.0 0.00 0.00 0.00 93 1011.3
20260509124244 59 176 1.0 1.0 0.00 0.00 0.00 92 1011.2
20260509123744 59 0 0.0 0.0 0.00 0.00 0.00 92 1011.2
20260509123246 58 0 0.0 0.0 0.00 0.00 0.00 92 1011.2
20260509122744 58 0 0.0 0.0 0.00 0.00 0.00 92 1011.1
20260509122246 59 341 1.0 1.0 0.00 0.00 0.00 91 1011.1
20260509121743 59 5 0.0 1.0 0.00 0.00 0.00 91 1011.1
20260509121243 59 0 0.0 0.0 0.00 0.00 0.00 91 1011.1
20260509120743 59 0 0.0 0.0 0.00 0.00 0.00 92 1011.1
20260509120243 59 0 0.0 0.0 0.00 0.00 0.00 92 1011.0
20260509115743 59 177 0.0 1.0 0.00 0.00 0.00 92 1010.8
20260509115243 59 0 0.0 0.0 0.00 0.00 0.00 92 1010.8
20260509114744 59 0 0.0 0.0 0.00 0.00 0.00 92 1010.8
20260509114243 58 0 0.0 0.0 0.00 0.00 0.00 92 1010.8
20260509113744 58 180 0.0 1.0 0.00 0.00 0.00 92 1010.7
20260509113245 58 189 1.0 1.0 0.00 0.00 0.00 92 1010.6
20260509112743 58 183 0.0 1.0 0.00 0.00 0.00 93 1010.6
20260509112244 58 0 0.0 0.0 0.00 0.00 0.00 93 1010.6
20260509111745 58 0 0.0 0.0 0.00 0.00 0.00 91 1010.5
20260509111243 59 0 0.0 0.0 0.00 0.00 0.00 91 1010.4
20260509110743 59 0 0.0 0.0 0.00 0.00 0.00 91 1010.3
20260509110243 59 0 0.0 0.0 0.00 0.00 0.00 91 1010.3
20260509105743 59 0 0.0 0.0 0.00 0.00 0.00 91 1010.4
20260509105244 59 0 0.0 0.0 0.00 0.00 0.00 90 1010.5
20260509104743 59 0 0.0 0.0 0.00 0.00 0.00 90 1010.4
20260509104245 60 0 0.0 0.0 0.00 0.00 0.00 90 1010.4
20260509103743 60 0 0.0 0.0 0.00 0.00 0.00 90 1010.5
20260509103243 60 0 0.0 0.0 0.00 0.00 0.00 90 1010.5
20260509102743 60 0 0.0 0.0 0.00 0.00 0.00 90 1010.6
20260509102244 60 0 0.0 0.0 0.00 0.00 0.00 90 1010.5
20260509101743 60 164 0.0 1.0 0.00 0.00 0.00 90 1010.6
20260509101243 60 161 0.0 0.0 0.00 0.00 0.00 91 1010.7
20260509100743 60 161 0.0 1.0 0.00 0.00 0.00 91 1010.8
20260509100246 60 164 0.0 1.0 0.00 0.00 0.00 91 1010.9
20260509095743 60 0 0.0 0.0 0.00 0.00 0.00 90 1010.9
20260509095243 60 0 0.0 0.0 0.00 0.00 0.00 90 1010.9
20260509094743 60 0 0.0 0.0 0.00 0.00 0.00 90 1011.0
20260509094245 61 0 0.0 0.0 0.00 0.00 0.00 90 1011.0
20260509093743 61 0 0.0 0.0 0.00 0.00 0.00 91 1011.1
20260509093244 61 155 1.0 1.0 0.00 0.00 0.00 90 1011.1
20260509092744 61 0 0.0 0.0 0.00 0.00 0.00 90 1011.1
20260509092244 61 0 0.0 0.0 0.00 0.00 0.00 91 1011.0
20260509091743 61 0 0.0 0.0 0.00 0.00 0.00 91 1010.9
20260509091245 61 0 0.0 0.0 0.00 0.00 0.00 91 1010.9
20260509090744 61 50 0.0 1.0 0.00 0.00 0.00 90 1010.9
20260509090244 61 0 0.0 0.0 0.00 0.00 0.00 90 1011.1
20260509085743 62 143 1.0 1.0 0.00 0.00 0.00 90 1011.1
20260509085243 62 0 0.0 0.0 0.00 0.00 0.00 89 1011.1
20260509084743 62 0 0.0 0.0 0.00 0.00 0.00 90 1011.0
20260509084245 62 0 0.0 0.0 0.00 0.00 0.00 90 1010.9
20260509083744 62 0 0.0 0.0 0.00 0.00 0.00 90 1010.8
20260509083245 62 0 0.0 0.0 0.00 0.00 0.00 90 1010.9
20260509082743 62 0 0.0 0.0 0.00 0.00 0.00 91 1010.8
20260509082243 62 0 0.0 0.0 0.00 0.00 0.00 91 1010.8
20260509081743 62 0 0.0 0.0 0.00 0.00 0.00 90 1010.9
20260509081244 62 0 0.0 0.0 0.00 0.00 0.00 91 1010.8
20260509080744 61 0 0.0 0.0 0.00 0.00 0.00 91 1010.9
20260509080243 61 0 0.0 0.0 0.00 0.00 0.00 91 1011.0
20260509075743 61 0 0.0 0.0 0.00 0.00 0.00 90 1011.2
20260509075243 61 0 0.0 0.0 0.00 0.00 0.00 90 1011.3
20260509074743 62 43 1.0 1.0 0.00 0.00 0.00 91 1011.3
20260509074243 62 0 0.0 0.0 0.00 0.00 0.00 90 1011.3
20260509073744 62 99 0.0 0.0 0.00 0.00 0.00 91 1011.4
20260509073243 62 114 0.0 0.0 0.00 0.00 0.00 92 1011.7
20260509072745 62 137 2.0 2.0 0.00 0.00 0.00 91 1011.6
20260509072243 62 0 0.0 0.0 0.00 0.00 0.00 90 1011.6
20260509071744 62 23 0.0 0.0 0.00 0.00 0.00 90 1011.6
20260509071243 63 75 1.0 1.0 0.00 0.00 0.00 89 1011.6
20260509070743 62 0 0.0 0.0 0.00 0.00 0.00 90 1011.4
20260509070243 62 142 1.0 2.0 0.00 0.00 0.00 90 1011.4
20260509065743 63 0 0.0 0.0 0.00 0.00 0.00 89 1011.4
20260509065243 62 0 0.0 0.0 0.00 0.00 0.00 90 1011.4
20260509064743 62 115 0.0 0.0 0.00 0.00 0.00 90 1011.4
20260509064243 62 142 1.0 2.0 0.00 0.00 0.00 90 1011.4
20260509063745 62 154 2.0 4.0 0.00 0.00 0.00 90 1011.3
20260509063243 63 156 3.0 4.0 0.00 0.00 0.00 89 1011.3
20260509062744 63 152 2.0 2.0 0.00 0.00 0.00 89 1011.7
20260509062243 63 150 1.0 2.0 0.00 0.00 0.00 88 1011.8
20260509061743 63 162 2.0 2.0 0.00 0.00 0.00 88 1011.7
20260509061243 63 158 2.0 3.0 0.00 0.00 0.00 89 1011.7
20260509060744 63 155 2.0 2.0 0.00 0.00 0.00 89 1011.8
20260509060243 64 152 1.0 2.0 0.00 0.00 0.00 88 1011.7
20260509055743 64 166 0.0 0.0 0.00 0.00 0.00 87 1011.7
20260509055243 64 0 0.0 0.0 0.00 0.00 0.00 87 1011.6
20260509054743 64 0 0.0 0.0 0.00 0.00 0.00 87 1011.4
20260509054243 64 124 0.0 0.0 0.00 0.00 0.00 88 1011.4
20260509053745 64 0 0.0 0.0 0.00 0.00 0.00 87 1011.4
20260509053244 64 0 0.0 0.0 0.00 0.00 0.00 87 1011.4
20260509052743 64 223 0.0 1.0 0.00 0.00 0.00 88 1011.4
20260509052243 64 0 0.0 0.0 0.00 0.00 0.00 88 1011.4
20260509051743 64 163 2.0 2.0 0.00 0.00 0.00 88 1011.6
20260509051243 64 0 0.0 0.0 0.00 0.00 0.00 88 1011.6
20260509050743 64 0 0.0 0.0 0.00 0.00 0.00 88 1011.4
20260509050244 64 25 0.0 0.0 0.00 0.00 0.00 88 1011.4
20260509045744 64 42 1.0 1.0 0.00 0.00 0.28 88 1011.4
20260509045243 64 0 0.0 0.0 0.00 0.00 0.28 88 1011.4
20260509044744 64 165 2.0 4.0 0.00 0.00 0.28 88 1011.7
20260509044245 64 178 1.0 2.0 0.00 0.00 0.28 89 1011.7
20260509043743 64 3 0.0 0.0 0.00 0.00 0.28 89 1011.7
20260509043243 65 0 0.0 0.0 0.00 0.00 0.28 89 1011.7
20260509042743 65 19 0.0 1.0 0.00 0.00 0.28 88 1011.7
20260509042243 65 78 0.0 0.0 0.00 0.00 0.28 88 1011.8
20260509041745 65 0 0.0 0.0 0.00 0.00 0.28 88 1011.6
20260509041244 65 199 0.0 1.0 0.00 0.00 0.28 89 1011.4
20260509040743 65 177 3.0 4.0 0.00 0.00 0.28 89 1011.4
20260509040243 65 160 2.0 2.0 0.00 0.00 0.28 90 1011.4
20260509035744 65 0 0.0 0.0 0.00 0.00 0.28 90 1011.2
20260509035244 65 26 0.0 0.0 0.00 0.00 0.28 90 1011.2
20260509034744 65 150 0.0 0.0 0.00 0.00 0.28 90 1011.1
20260509034243 65 268 1.0 2.0 0.00 0.00 0.28 90 1011.0
20260509033744 65 149 0.0 0.0 0.00 0.00 0.28 90 1010.8
20260509033243 66 162 3.0 3.0 0.00 0.00 0.28 89 1010.7
20260509032743 66 0 0.0 0.0 0.00 0.00 0.28 88 1010.5
20260509032243 66 0 0.0 0.0 0.00 0.00 0.28 89 1010.4
20260509031744 66 0 0.0 0.0 0.00 0.00 0.28 89 1010.3
20260509031243 66 146 1.0 2.0 0.00 0.00 0.28 89 1010.3
20260509030743 66 0 0.0 0.0 0.00 0.00 0.28 88 1010.1
20260509030244 66 0 0.0 0.0 0.00 0.00 0.28 88 1010.0
20260509025745 66 0 0.0 0.0 0.00 0.00 0.28 88 1009.9
20260509025245 66 0 0.0 0.0 0.00 0.00 0.28 88 1009.8
20260509024745 67 0 0.0 0.0 0.00 0.00 0.28 88 1009.8
20260509024243 67 175 1.0 1.0 0.00 0.00 0.28 88 1009.8
20260509023743 67 13 0.0 1.0 0.00 0.00 0.28 87 1009.7
20260509023243 67 0 0.0 0.0 0.00 0.00 0.28 86 1009.7
20260509022743 67 21 0.0 1.0 0.00 0.00 0.28 85 1009.6
20260509022245 68 131 1.0 1.0 0.00 0.00 0.28 84 1009.5
20260509021743 68 38 1.0 1.0 0.00 0.00 0.28 83 1009.6
20260509021243 68 134 1.0 2.0 0.00 0.00 0.28 81 1009.3
20260509020745 68 127 1.0 1.0 0.00 0.00 0.28 82 1009.2
20260509020244 68 30 1.0 1.0 0.00 0.00 0.28 82 1009.1
20260509015744 68 112 1.0 1.0 0.00 0.00 0.28 82 1009.0
20260509015245 68 128 1.0 1.0 0.00 0.00 0.28 81 1008.9
20260509014743 69 117 1.0 1.0 0.00 0.00 0.28 80 1008.9
20260509014243 69 144 1.0 1.0 0.00 0.00 0.28 79 1008.6
20260509013743 69 0 0.0 0.0 0.00 0.00 0.28 79 1008.4
20260509013243 69 0 0.0 0.0 0.00 0.00 0.28 79 1008.3
20260509012743 69 0 0.0 0.0 0.00 0.00 0.28 80 1008.2
20260509012243 69 51 0.0 1.0 0.00 0.00 0.28 80 1008.3
20260509011743 69 59 0.0 1.0 0.00 0.00 0.28 80 1008.3
20260509011245 69 132 1.0 1.0 0.00 0.00 0.28 79 1008.3
20260509010745 69 146 2.0 2.0 0.00 0.00 0.28 79 1008.4
20260509010243 69 142 2.0 2.0 0.00 0.00 0.28 79 1008.5
20260509005743 69 150 0.0 1.0 0.00 0.00 0.30 81 1008.4
20260509005243 69 29 0.0 1.0 0.00 0.00 0.30 82 1008.3
20260509004744 69 132 2.0 3.0 0.00 0.00 0.30 80 1008.2
20260509004243 69 38 1.0 1.0 0.00 0.00 0.30 82 1008.2
20260509003743 69 147 4.0 4.0 0.00 0.00 0.30 82 1007.9
20260509003244 69 87 1.0 2.0 0.00 0.00 0.30 82 1007.8
20260509002743 70 150 3.0 5.0 0.05 0.00 0.30 81 1007.6
20260509002244 70 151 3.0 6.0 0.05 0.00 0.38 81 1007.5
20260509001743 70 19 0.0 1.0 0.05 0.00 0.38 84 1007.4
20260509001244 70 36 0.0 1.0 0.05 0.00 0.38 84 1007.1
20260509000744 69 139 2.0 2.0 0.05 0.00 0.38 83 1006.9
20260509000244 69 80 2.0 2.0 0.13 0.00 0.38 84 1006.9
20260508235743 70 148 3.0 4.0 0.14 0.00 0.36 82 1007.0
20260508234755 69 213 2.0 2.0 0.36 0.00 0.36 82 1007.1
20260508234243 69 133 2.0 2.0 0.36 0.00 0.36 80 1006.8
20260508233745 70 26 1.0 2.0 0.36 0.00 0.36 86 1006.8
20260508233244 70 32 0.0 1.0 0.36 0.00 0.36 86 1006.7
20260508232746 70 39 1.0 2.0 0.36 0.00 0.36 87 1006.6
20260508232245 70 24 0.0 1.0 0.39 0.00 0.39 88 1006.6
20260508231744 69 53 1.0 1.0 0.27 0.00 0.27 89 1006.7
20260508231244 69 35 0.0 0.0 0.27 0.00 0.27 86 1006.8
20260508230744 69 327 2.0 3.0 0.19 0.00 0.27 82 1006.9
20260508230243 70 23 2.0 2.0 0.18 0.00 0.19 83 1007.2
20260508225743 72 13 1.0 2.0 0.15 0.00 0.17 82 1006.9
20260508225244 77 2 3.0 4.0 0.12 0.00 0.13 73 1007.5
20260508224745 82 212 2.0 4.0 0.00 0.00 0.00 58 1007.9